Regional Weather Roundup
Issued by NWS Albany, NY

Home | Current Version | Previous Version | Text Only | Print | Product List | Glossary On
Versions: 1 2 3 4 5 6 7 8 9 10 11 12 13 14 15 16 17 18 19 20 21 22 23 24 25 26 27
000
ASUS41 KALY 271510
RWRALY

NEW YORK STATE HOURLY WEATHER ROUNDUP
NATIONAL WEATHER SERVICE ALBANY NY
1100 AM EDT FRI MAY 27 2016

NOTE: "FAIR" INDICATES FEW OR NO CLOUDS BELOW 12,000 FEET WITH NO
SIGNIFICANT WEATHER AND/OR NO OBSTRUCTIONS TO VISIBILITY.

NYZ032-033-038>043-046>054-057>066-NYZ062>081-082-084-271600-
EAST


CITY           SKY/WX    TMP DP  RH WIND       PRES   REMARKS
ALBANY         PTSUNNY   78  60  53 S7        30.03S
GLENS FALLS    MOSUNNY   81  61  50 S7        30.01F
POUGHKEEPSIE   CLOUDY    80  63  55 SE7       30.04F
NEWBURGH       PTSUNNY   77  66  69 VRB5      30.07F
MONTGOMERY     CLOUDY    79  67  66 SW7       30.05S
WHITE PLAINS   MOSUNNY   79  65  62 S8        30.07F
ISLIP          PTSUNNY   76  64  66 S9        30.08S
NEW YORK CITY  MOSUNNY   82  67  60 SE9       30.05F
CENTRAL PARK   SUNNY     82  62  50 VRB6      30.08F
$$

NYZ005>009-017-018-044>046-055-056-271600-
CENTRAL


CITY           SKY/WX    TMP DP  RH WIND       PRES   REMARKS
FULTON         PTSUNNY   81  68  64 VRB5      30.00F
SYRACUSE       MOSUNNY   81  67  62 VRB3      29.99S
ROME           PTSUNNY   80  65  59 SW9       30.02S
ELMIRA         SUNNY     81  64  56 SW9       30.03S
BINGHAMTON     SUNNY     76  64  66 VRB5      30.07F
MONTICELLO     CLOUDY    75  68  78 W3        30.11R
$$

NYZ026>034-041>043-087-271600-
NORTH


CITY           SKY/WX    TMP DP  RH WIND       PRES   REMARKS
WATERTOWN      MOSUNNY   78  65  63 SW8       29.99F
FORT DRUM      NOT AVBL
MASSENA        MOSUNNY   82  64  54 SW13      29.96F
SARANAC LAKE   CLOUDY    79  58  48 S10       30.03S
PLATTSBURGH    MOSUNNY   78  62  57 SE12      29.97F
$$

NYZ001>004-010>016-019>021-085-271600-
WEST


CITY           SKY/WX    TMP DP  RH WIND       PRES   REMARKS
NIAGARA FALLS  PTSUNNY   77  65  66 SW20      29.99R
BUFFALO        CLOUDY    74  64  71 SW16G25   30.01R
DUNKIRK        MOSUNNY   76  64  66 W13       30.02R
JAMESTOWN      MOSUNNY   72  63  73 S9        30.06S
WELLSVILLE     SUNNY     76  62  62 SW9       30.09F
ROCHESTER      PTSUNNY   81  69  67 SW8       29.99S
PENN YAN       SUNNY     80  66  62 SW10      30.03S
$$

             KEY
       WCI = WIND CHILL INDEX
       VSB = VISIBILITY
       HX  = HEAT INDEX
$$




USA.gov is the U.S. government's official web portal to all federal, state and local government web resources and services.